Weather History for Tillamook, OR

Change the Weather History Date:

Sunday, November 4, 2012

  Actual Average (KMMV) Record (KMMV)
Temperature  
Mean Temperature 60 °F 47 °F  
Max Temperature 64 °F 55 °F 74 °F (1929)
Min Temperature 57 °F 39 °F 21 °F (1957)
Degree Days  
Heating Degree Days 4 18  
Month to date heating degree days 70  
Since 1 July heating degree days 693  
Cooling Degree Days 0 0  
Month to date cooling degree days 0  
Year to date cooling degree days 215  
Growing Degree Days 10 (Base 50)    
Moisture  
Dew Point 60 °F    
Average Humidity 100    
Maximum Humidity 100    
Minimum Humidity 100    
Precipitation  
Precipitation 0.09 in 0.19 in 1.63 in (1969)
Month to date precipitation 0.76  
Year to date precipitation 27.62  
Snow  
Snow 0.00 in - - ()
Month to date snowfall  
Since 1 July snowfall  
Since 1 September snowfall  
Snow Depth -    
Sea Level Pressure  
Sea Level Pressure 30.26 in    
Wind  
Wind Speed 2 mph (North)    
Max Wind Speed 8 mph    
Max Gust Speed -    
Visibility 6 miles    
Events Rain    
T = Trace of Precipitation, MM = Missing Value Source: NWS Daily Summary

Daily Weather History Graph

Daily Weather History Graph

Search for Another Location

Airport:

Trip Planner

Search our weather history database for the weather conditions in past years. The results will help you decide how hot, cold, wet, or windy it might be!

Date:

Astronomy

Nov. 04, 2012 Rise Set
Actual Time 7:59 AM MST 5:57 PM MST
Civil Twilight 7:28 AM MST 6:28 PM MST
Nautical Twilight 6:53 AM MST 7:03 PM MST
Astronomical Twilight 6:18 AM MST 7:38 PM MST
Moon 10:38 PM MST (11/4) 12:49 PM MST (11/4)
Length of Visible Light 11h 00m
Length of Day
9h 57m
Waning Gibbous, 71% of the Moon is Illuminated
Nov 4
Waning Gibbous
Nov 6
Last Quarter
Nov 13
New
Nov 20
First Quarter
Nov 28
Full

Hourly Weather History & Observations

Time (MST) Temp. Dew Point Humidity Pressure Visibility Wind Dir Wind Speed Gust Speed Precip Events Conditions
12:15 AM 57.2 °F 57.2 °F 100% 30.16 in 5.0 mi Calm Calm - N/A   Overcast
12:35 AM 57.2 °F 57.2 °F 100% 30.18 in 7.0 mi Calm Calm - N/A   Overcast
12:55 AM 57.2 °F 57.2 °F 100% 30.17 in 7.0 mi Calm Calm - N/A   Overcast
1:15 AM 57.2 °F 57.2 °F 100% 30.17 in 10.0 mi Calm Calm - N/A   Overcast
1:35 AM 57.2 °F 57.2 °F 100% 30.17 in 10.0 mi Calm Calm - N/A   Overcast
1:55 AM 57.2 °F 57.2 °F 100% 30.17 in 5.0 mi Calm Calm - N/A   Overcast
1:15 AM 57.2 °F 57.2 °F 100% 30.17 in 7.0 mi Calm Calm - N/A   Overcast
1:35 AM 57.2 °F 57.2 °F 100% 30.17 in 7.0 mi Calm Calm - N/A   Overcast
1:55 AM 57.2 °F 57.2 °F 100% 30.17 in 7.0 mi Calm Calm - N/A   Overcast
2:15 AM 57.2 °F 57.2 °F 100% 30.18 in 4.0 mi Calm Calm - N/A   Drizzle
2:35 AM 57.2 °F 57.2 °F 100% 30.18 in 3.0 mi NNE 4.6 mph - 0.01 in   Drizzle
2:55 AM 57.2 °F 57.2 °F 100% 30.18 in 4.0 mi ENE 3.5 mph - 0.01 in   Drizzle
3:15 AM 57.2 °F 57.2 °F 100% 30.18 in 4.0 mi Calm Calm - N/A   Drizzle
3:35 AM 59.0 °F 59.0 °F 100% 30.18 in 3.0 mi NE 4.6 mph - 0.01 in   Drizzle
3:55 AM 59.0 °F 59.0 °F 100% 30.18 in 5.0 mi NE 4.6 mph - 0.02 in Rain Rain
4:15 AM 59.0 °F 59.0 °F 100% 30.18 in 4.0 mi ENE 3.5 mph - N/A   Drizzle
4:35 AM 59.0 °F 59.0 °F 100% 30.18 in 5.0 mi NE 4.6 mph - 0.01 in   Drizzle
4:55 AM 59.0 °F 59.0 °F 100% 30.19 in 4.0 mi Calm Calm - 0.01 in Rain Rain
5:15 AM 59.0 °F 59.0 °F 100% 30.19 in 4.0 mi NE 5.8 mph - 0.01 in   Light Drizzle
5:35 AM 59.0 °F 59.0 °F 100% 30.18 in 5.0 mi East 3.5 mph - 0.01 in   Light Drizzle
5:55 AM 59.0 °F 59.0 °F 100% 30.19 in 7.0 mi SE 3.5 mph - 0.01 in   Overcast
6:15 AM 60.8 °F 60.8 °F 100% 30.19 in 10.0 mi Calm Calm - N/A   Overcast
6:35 AM 59.0 °F 59.0 °F 100% 30.19 in 5.0 mi ENE 3.5 mph - N/A Rain Rain
6:55 AM 59.0 °F 59.0 °F 100% 30.19 in 7.0 mi Calm Calm - N/A   Light Drizzle
7:15 AM 59.0 °F 59.0 °F 100% 30.20 in 4.0 mi NE 3.5 mph - N/A   Light Drizzle
7:35 AM 59.0 °F 59.0 °F 100% 30.20 in 4.0 mi ENE 3.5 mph - N/A Rain Rain
7:55 AM 59.0 °F 59.0 °F 100% 30.21 in 4.0 mi NE 3.5 mph - 0.01 in   Drizzle
8:15 AM 59.0 °F 59.0 °F 100% 30.21 in 3.0 mi NE 3.5 mph - N/A   Light Drizzle
8:35 AM 59.0 °F 59.0 °F 100% 30.22 in 2.5 mi ENE 3.5 mph - N/A   Light Drizzle
8:55 AM 59.0 °F 59.0 °F 100% 30.23 in 3.0 mi Calm Calm - 0.01 in Rain Light Rain
9:15 AM 59.0 °F 59.0 °F 100% 30.24 in 1.8 mi Calm Calm - N/A   Drizzle
9:35 AM 59.0 °F 59.0 °F 100% 30.25 in 1.5 mi NE 3.5 mph - 0.01 in   Drizzle
9:55 AM 60.8 °F 60.8 °F 100% 30.25 in 2.5 mi Calm Calm - 0.01 in Rain Rain
10:15 AM 60.8 °F 60.8 °F 100% 30.25 in 3.0 mi Calm Calm - N/A   Light Drizzle
10:35 AM 60.8 °F 60.8 °F 100% 30.26 in 4.0 mi Calm Calm - N/A   Light Drizzle
10:55 AM 62.6 °F 62.6 °F 100% 30.27 in 5.0 mi WNW 3.5 mph - N/A   Overcast
11:15 AM 62.6 °F 62.6 °F 100% 30.27 in 5.0 mi NW 4.6 mph - N/A   Overcast
11:35 AM 62.6 °F 62.6 °F 100% 30.28 in 7.0 mi Calm Calm - N/A   Overcast
11:55 AM 62.6 °F 62.6 °F 100% 30.29 in 10.0 mi NNW 4.6 mph - N/A   Overcast
12:15 PM 62.6 °F 62.6 °F 100% 30.29 in 10.0 mi NNW 4.6 mph - N/A   Overcast
12:35 PM 62.6 °F 62.6 °F 100% 30.29 in 10.0 mi NW 4.6 mph - N/A   Overcast
12:55 PM 64.4 °F - N/A% 30.29 in 5.0 mi NW 3.5 mph - N/A   Haze
1:15 PM 64.4 °F 64.4 °F 100% 30.29 in 10.0 mi NW 3.5 mph - N/A   Overcast
1:35 PM 64.4 °F 64.4 °F 100% 30.30 in 4.0 mi Calm Calm - N/A   Overcast
1:55 PM 64.4 °F 64.4 °F 100% 30.30 in 2.5 mi WNW 3.5 mph - N/A Rain Rain
2:15 PM 62.6 °F 62.6 °F 100% 30.31 in 3.0 mi WSW 6.9 mph - N/A   Drizzle
2:35 PM 62.6 °F 62.6 °F 100% 30.30 in 2.0 mi West 4.6 mph - N/A   Light Drizzle
2:55 PM 62.6 °F 62.6 °F 100% 30.31 in 2.0 mi West 6.9 mph - N/A   Light Drizzle
3:15 PM 62.6 °F 62.6 °F 100% 30.32 in 5.0 mi WSW 8.1 mph - 0.01 in   Overcast
3:35 PM 62.6 °F 62.6 °F 100% 30.31 in 10.0 mi SW 3.5 mph - 0.01 in   Overcast
3:55 PM 62.6 °F 62.6 °F 100% 30.31 in 10.0 mi Calm Calm - 0.01 in   Overcast
4:15 PM 62.6 °F 62.6 °F 100% 30.32 in 10.0 mi West 3.5 mph - N/A   Overcast
4:35 PM 62.6 °F 62.6 °F 100% 30.31 in 10.0 mi Calm Calm - N/A   Overcast
4:55 PM 64.4 °F 64.4 °F 100% 30.31 in 10.0 mi Calm Calm - N/A   Overcast
5:15 PM 62.6 °F 62.6 °F 100% 30.31 in 10.0 mi WNW 4.6 mph - N/A   Overcast
5:35 PM 62.6 °F 62.6 °F 100% 30.32 in 10.0 mi SW 8.1 mph - N/A   Overcast
5:55 PM 62.6 °F 62.6 °F 100% 30.32 in 7.0 mi SSW 8.1 mph - N/A   Overcast
6:15 PM 60.8 °F 60.8 °F 100% 30.32 in 10.0 mi South 4.6 mph - N/A   Overcast
6:35 PM 60.8 °F 60.8 °F 100% 30.31 in 10.0 mi South 3.5 mph - N/A   Mostly Cloudy
6:55 PM 60.8 °F 60.8 °F 100% 30.32 in 7.0 mi Calm Calm - N/A   Mostly Cloudy
7:15 PM 60.8 °F 60.8 °F 100% 30.32 in 10.0 mi Calm Calm - N/A   Mostly Cloudy
7:35 PM 60.8 °F 60.8 °F 100% 30.32 in 10.0 mi Calm Calm - N/A   Overcast
7:55 PM 60.8 °F 60.8 °F 100% 30.33 in 10.0 mi Calm Calm - N/A   Overcast
8:15 PM 60.8 °F 60.8 °F 100% 30.33 in 7.0 mi East 3.5 mph - N/A Rain Light Rain
8:35 PM 60.8 °F 60.8 °F 100% 30.33 in 5.0 mi Calm Calm - N/A   Drizzle
8:55 PM 60.8 °F 60.8 °F 100% 30.34 in 5.0 mi Calm Calm - N/A   Overcast
9:15 PM 60.8 °F 60.8 °F 100% 30.34 in 7.0 mi Calm Calm - N/A   Overcast
9:35 PM 60.8 °F 60.8 °F 100% 30.34 in 1.8 mi Calm Calm - N/A   Overcast
9:55 PM 60.8 °F 60.8 °F 100% 30.34 in 1.5 mi Calm Calm - N/A   Overcast
10:15 PM 60.8 °F 60.8 °F 100% 30.34 in 4.0 mi Calm Calm - N/A   Overcast
10:35 PM 60.8 °F 60.8 °F 100% 30.33 in 5.0 mi Calm Calm - N/A Rain Rain
10:55 PM 60.8 °F 60.8 °F 100% 30.34 in 7.0 mi Calm Calm - N/A   Overcast